Volver al catálogo

STARLINK-37674

ActivoComunicacionesVLEO
NORAD 100278·PAYLOAD·🇺🇸 United States

Lanzado Aug 11, 2026 desde Cape Canaveral Space Force Station

Loading…

Próximos Pases (próximas 24 horas)

TLE

EnvejeciendoSource: Space-Track

Época: Sep 13, 2026, 07:07 UTC

1 A0278U 26183G   26256.29673909 -.01285714  00000-0 -10944-1 0  9992
2 A0278  53.1586 292.7948 0000409  34.8762 325.2284 15.71615023  5171

Sigue STARLINK-37674 en tiempo real con AllMySat

Download on the App Store